New Roads False River Regiona, LA

8:09 PM CST on November 11, 2019 (GMT -0600)
False River

Weather History for KHZR - August, 2019

Change the Weather History Date:

Thursday, August 22, 2019

  Actual Average (KBTR) Record (KBTR)
Temperature  
Mean Temperature 81 °F -  
Max Temperature 89 °F 91 °F 100 °F (1980)
Min Temperature 73 °F 72 °F 61 °F (1940)
Cooling Degree Days 16    
Growing Degree Days 31 (Base 50)    
Moisture  
Dew Point 73 °F    
Average Humidity 80    
Maximum Humidity 100    
Minimum Humidity 52    
Precipitation  
Precipitation 0.01 in - - ()
Sea Level Pressure  
Sea Level Pressure 29.99 in    
Wind  
Wind Speed 2 mph ()    
Max Wind Speed 10 mph    
Max Gust Speed -    
Visibility 7.9 miles    
Events      
Averages and records for this station are not official NWS values.
T = Trace of Precipitation, MM = Missing Value Source: Averaged Metar Reports

Daily Weather History Graph

Daily Weather History Graph

Search for Another Location

Airport or City:

Astronomy

Aug. 22, 2019 Rise Set
Actual Time 6:36 AM CDT 7:40 PM CDT
Civil Twilight 6:11 AM CDT 8:05 PM CDT
Nautical Twilight 5:41 AM CDT 8:35 PM CDT
Astronomical Twilight 5:11 AM CDT 9:05 PM CDT
Moon 11:58 PM CDT (8/22) 12:45 PM CDT (8/22)
Length of Visible Light 13h 54m
Length of Day
13h 04m
Waning Gibbous, 59% of the Moon is Illuminated
Aug 22
Waning Gibbous
Aug 23
Last Quarter
Aug 30
New
Sep 5
First Quarter
Sep 13
Full

Hourly Weather History & Observations

Time (CDT) Temp. Heat Index Dew Point Humidity Pressure Visibility Wind Dir Wind Speed Gust Speed Precip Events Conditions
12:16 AM 73.4 °F - 73.4 °F 100% 30.02 in 7.0 mi SE 3.5 mph - N/A   Clear
12:36 AM 73.4 °F - 73.4 °F 100% 30.02 in 5.0 mi Calm Calm - N/A   Clear
12:57 AM 73.4 °F - 73.4 °F 100% 30.01 in 5.0 mi Calm Calm - N/A   Clear
1:16 AM 73.4 °F - 73.4 °F 100% 30.01 in 7.0 mi SSE 3.5 mph - N/A   Clear
1:36 AM 73.4 °F - 73.4 °F 100% 30.01 in 4.0 mi Calm Calm - N/A   Clear
1:56 AM 73.4 °F - 73.4 °F 100% 30.01 in 4.0 mi ESE 3.5 mph - N/A   Clear
2:18 AM 73.4 °F - 73.4 °F 100% 30.00 in 4.0 mi Calm Calm - N/A   Clear
2:36 AM 73.4 °F - 73.4 °F 100% 30.00 in 4.0 mi Calm Calm - N/A   Clear
2:58 AM 73.4 °F - 73.4 °F 100% 30.00 in 3.0 mi Calm Calm - 0.01 in   Clear
3:16 AM 73.4 °F - 73.4 °F 100% 30.00 in 5.0 mi SSE 4.6 mph - N/A   Clear
3:38 AM 75.2 °F - 75.2 °F 100% 30.00 in 7.0 mi SSE 3.5 mph - N/A   Clear
3:58 AM 75.2 °F - 75.2 °F 100% 30.00 in 5.0 mi Calm Calm - N/A   Clear
4:38 AM 73.4 °F - 73.4 °F 100% 29.99 in 2.5 mi Calm Calm - N/A   Clear
4:58 AM 73.4 °F - 73.4 °F 100% 30.00 in 2.5 mi NNE 3.5 mph - N/A   Clear
5:16 AM 73.4 °F - 73.4 °F 100% 30.00 in 3.0 mi Calm Calm - N/A   Clear
5:36 AM 73.4 °F - 73.4 °F 100% 30.01 in 4.0 mi Calm Calm - N/A   Clear
5:56 AM 73.4 °F - 73.4 °F 100% 30.01 in 4.0 mi Calm Calm - N/A   Clear
6:16 AM 73.4 °F - 73.4 °F 100% 30.01 in 4.0 mi Calm Calm - N/A   Clear
6:36 AM 73.4 °F - 73.4 °F 100% 30.02 in 4.0 mi Calm Calm - N/A   Clear
7:16 AM 73.4 °F - 73.4 °F 100% 30.03 in 4.0 mi Calm Calm - N/A   Clear
7:36 AM 73.4 °F - 73.4 °F 100% 30.03 in 5.0 mi Calm Calm - N/A   Clear
7:56 AM 73.4 °F - 73.4 °F 100% 30.03 in 4.0 mi Calm Calm - N/A   Clear
8:16 AM 75.2 °F - 75.2 °F 100% 30.04 in 5.0 mi Calm Calm - N/A   Scattered Clouds
8:36 AM 75.2 °F - 75.2 °F 100% 30.04 in 5.0 mi Calm Calm - N/A   Clear
9:16 AM 78.8 °F - 75.2 °F 89% 30.04 in 10.0 mi East 3.5 mph - N/A   Clear
9:36 AM 80.6 °F 87.1 °F 77.0 °F 89% 30.05 in 10.0 mi Calm Calm - N/A   Clear
10:19 AM 82.4 °F 90.9 °F 77.0 °F 84% 30.04 in 10.0 mi South 4.6 mph - N/A   Clear
10:36 AM 84.2 °F 94.1 °F 77.0 °F 79% 30.04 in 10.0 mi Calm Calm - N/A   Clear
10:56 AM 86.0 °F 95.1 °F 75.2 °F 70% 30.04 in 10.0 mi Calm Calm - N/A   Mostly Cloudy
11:16 AM 84.2 °F 92.3 °F 75.2 °F 74% 30.04 in 10.0 mi Calm Calm - N/A   Overcast
11:56 AM 87.8 °F 95.6 °F 73.4 °F 62% 30.03 in 10.0 mi SSE 4.6 mph - N/A   Mostly Cloudy
12:16 PM 86.0 °F 93.4 °F 73.4 °F 66% 30.02 in 10.0 mi Calm Calm - N/A   Mostly Cloudy
12:36 PM 89.6 °F 98.2 °F 73.4 °F 59% 30.01 in 10.0 mi Calm Calm - N/A   Scattered Clouds
12:56 PM 87.8 °F 95.6 °F 73.4 °F 62% 29.99 in 10.0 mi Calm Calm - N/A   Scattered Clouds
1:16 PM 87.8 °F 93.8 °F 71.6 °F 58% 30.00 in 10.0 mi ESE 4.6 mph - N/A   Scattered Clouds
1:36 PM 89.6 °F 96.2 °F 71.6 °F 55% 29.98 in 10.0 mi Calm Calm - N/A   Scattered Clouds
1:58 PM 89.6 °F 98.2 °F 73.4 °F 59% 29.98 in 10.0 mi SSE 4.6 mph - N/A   Mostly Cloudy
2:16 PM 89.6 °F 94.7 °F 69.8 °F 52% 29.97 in 10.0 mi South 5.8 mph - N/A   Scattered Clouds
2:38 PM 89.6 °F 94.7 °F 69.8 °F 52% 29.96 in 10.0 mi Calm Calm - N/A   Clear
2:56 PM 89.6 °F 94.7 °F 69.8 °F 52% 29.94 in 10.0 mi Calm Calm - N/A   Clear
3:16 PM 89.6 °F 94.7 °F 69.8 °F 52% 29.94 in 10.0 mi South 4.6 mph - N/A   Clear
3:36 PM 89.6 °F 94.7 °F 69.8 °F 52% 29.93 in 10.0 mi South 4.6 mph - N/A   Clear
3:59 PM 89.6 °F 96.2 °F 71.6 °F 55% 29.93 in 10.0 mi South 4.6 mph - N/A   Clear
4:16 PM 89.6 °F 98.2 °F 73.4 °F 59% 29.93 in 10.0 mi SSE 4.6 mph - N/A   Clear
4:38 PM 89.6 °F 98.2 °F 73.4 °F 59% 29.93 in 10.0 mi SSW 4.6 mph - N/A   Clear
4:56 PM 89.6 °F 98.2 °F 73.4 °F 59% 29.93 in 10.0 mi South 4.6 mph - N/A   Clear
5:16 PM 89.6 °F 98.2 °F 73.4 °F 59% 29.93 in 10.0 mi South 5.8 mph - N/A   Clear
5:36 PM 89.6 °F 96.2 °F 71.6 °F 55% 29.94 in 10.0 mi South 6.9 mph - N/A   Clear
5:56 PM 89.6 °F 96.2 °F 71.6 °F 55% 29.94 in 10.0 mi South 5.8 mph - N/A   Clear
6:16 PM 89.6 °F 98.2 °F 73.4 °F 59% 29.94 in 10.0 mi SSE 9.2 mph - N/A   Clear
6:36 PM 86.0 °F 93.4 °F 73.4 °F 66% 29.94 in 10.0 mi SE 10.4 mph - N/A   Scattered Clouds
7:16 PM 84.2 °F 90.9 °F 73.4 °F 70% 29.95 in 10.0 mi SSE 6.9 mph - N/A   Scattered Clouds
7:36 PM 82.4 °F 89.5 °F 75.2 °F 79% 29.95 in 10.0 mi SE 3.5 mph - N/A   Clear
8:16 PM 82.4 °F 89.5 °F 75.2 °F 79% 29.95 in 10.0 mi SSE 4.6 mph - N/A   Clear
8:36 PM 82.4 °F 89.5 °F 75.2 °F 79% 29.95 in 10.0 mi SSE 5.8 mph - N/A   Clear
9:16 PM 82.4 °F 89.5 °F 75.2 °F 79% 29.96 in 10.0 mi SSE 6.9 mph - N/A   Clear
9:36 PM 80.6 °F 85.4 °F 73.4 °F 79% 29.97 in 10.0 mi SSE 6.9 mph - N/A   Clear
10:36 PM 78.8 °F - 71.6 °F 78% 29.98 in 10.0 mi South 4.6 mph - N/A   Clear
10:56 PM 78.8 °F - 73.4 °F 83% 29.98 in 10.0 mi SSE 6.9 mph - N/A   Clear
11:16 PM 78.8 °F - 73.4 °F 83% 29.98 in 10.0 mi SE 5.8 mph - N/A   Clear
11:36 PM 78.8 °F - 73.4 °F 83% 29.98 in 10.0 mi SE 4.6 mph - N/A   Clear
11:56 PM 77.0 °F - 73.4 °F 89% 29.98 in 10.0 mi SSE 5.8 mph - N/A   Clear